Find Local Weather

World > North America > United States > Florida

Key Biscayne, Florida Regional Weather

Lat: 25.69N, Lon: 80.16W
Wx Zone: FLZ173
Warning FLW WEATHER ALERT - SMALL CRAFT ADVISORY (More Info. Click Here) Warning
Feedback
Expires:201811151200;;337026
ASUS42 KTBW 151117
RWRFL 
FLORIDA REGIONAL WEATHER ROUNDUP
NATIONAL WEATHER SERVICE TAMPA BAY RUSKIN FL
600 AM EST THU NOV 15 2018

NOTE: "FAIR" INDICATES FEW OR NO CLOUDS BELOW 12,000 FEET WITH NO
SIGNIFICANT WEATHER AND/OR OBSTRUCTIONS TO VISIBILITY.


FLZ067-068-071>074-168-172>174-151200-
SOUTHEAST FLORIDA 
  
CITY           SKY/WX    TMP DP  RH WIND       PRES   REMARKS
W PALM BEACH   FAIR      77  74  90 S5        29.96R                  
FT LAUDER-EXEC FAIR      76  76 100 CALM      29.96R                  
FT LAUDERDALE  FAIR      78  77  96 S3        29.95R                  
POMPANO BEACH  FAIR      80  73  79 S7        29.96R                  
PEMBROKE PINES FAIR      77  75  93 CALM      29.97R                  
OPA LOCKA      FAIR      77  75  93 CALM      29.96R                  
MIAMI          LGT RAIN  78  76  93 S7        29.96R                  
WEST KENDALL   FAIR      77  75  93 CALM      29.96R                  
HOMESTEAD      FAIR      76  75  97 CALM      29.95R                  

STATION/POSITION SKY/WX   TEMP    WIND        PRES    WAVE   SWELL
                          AIR SEA DIR/SP/G            HT/PER HT/PER
                          (F)     (DEG/KT/KT) (MB)    (FT/S) (FT/S)
PORT EVERGLADES            81     160/  8/ 11 1014.3R
VIRGINIA KEY               81 83  140/  8/ 11 1014.2R
LAKE WORTH                 80 81  180/ 13/ 14 1015.6R
FOWEY ROCKS                80 81  150/ 13/ 14 1015.1R
SETTLEMENT POINT           79     160/  9/ 12 1014.8R

$$

  

SKY/WX - Weather  TMP - Temperature  DP - Dew Point  RH - Relative Humidity
WIND - Wind Direction/Speed PRES - Barometric Pressure